sat.trackr.live / text

‹ back to catalog

STARLINK-30416

NORAD 57847 · 2023-141H

PAYLOAD ACTIVE UNKNOWN

§ Identity

Operator
Country
US
Launch date
2023-09-12
Launch site
AFWTR
Launch vehicle
Mass (kg)
RCS (m²)

Purposes: comms

External: N2YO · Heavens-Above · Gunter

§ Orbital elements

Epoch: 2026-05-24T19:30:47.021472Z

Period
94.01 min
Inclination
53.1608°
Eccentricity
0.0001284
Mean motion
15.31710438 rev/d
Perigee alt
469.8 km
Apogee alt
471.6 km
Semi-major
6,848.8 km
B*
-2.6898e-5
RAAN
290.4414°
Arg perigee
84.2859°
Mean anomaly
275.8288°
Rev number
15,198

§ Raw data

STARLINK-304161 57847U 23141H   26144.81304423 -.00001200  00000+0 -26898-4 0  99952 57847  53.1608 290.4414 0001284  84.2859 275.8288 15.31710438151988

JSON: /api/v1/satellites/57847 · /tle

For live sub-satellite position, see the globe view (requires WebGL).

§ Visibility from observer

Set your observer location to see the next 7 days of passes ≥ 10°. The values pass through the URL so the page stays shareable.

No JS? Fill the form by hand. The geolocation button needs JavaScript.